STARLINK-1664, 46553

Orbit data source: Space-Track

STARLINK-1664, 46553 is a payload satellite owned by SpaceX/Seattle (US) in LEO that was launched on Tue, 06 Oct 2020 UTC via an FALCON 9 launch vehicle from the Air Force Eastern Test Range (AFETR). Payload-class satellites include a variety of spacecraft equipped with specific instruments for various scientific and technological missions. These include communications satellites like Starlink; space stations such as the ISS; scientific satellites like the Hubble; Earth observation satellites from companies like Planet Labs, Umbra, and HawkEye 360; GPS; miniature CubeSats for education and research; and military/defense satellites.

Loading next visibility...
Identifier
46553, 2020-070X
Orbit
LEO
Country
Flag of USUS
Related business
Manufacturer
SpaceX/Seattle
Mission
Operational Commercial Communications
Bus & Motor
STARLINK, Unknown motor
Mass
260 kg wet, ~248 kg dry
Launch date (UTC)
2020-10-06 (5 years ago)
Launch vehicle
FALCON 9
Launch site
Air Force Eastern Test Range (AFETR)
Object type
Payload
Rocket body
Debris
Shape & HBR
Box + 1 Pan, 10.1 m
Radar Cross Section
13.562 m², Large (>1 m²)

Expand to show TLE details & history
Last TLE update: 1 day ago

TLE from 1 day ago
0 STARLINK-1664
1 46553U 20070X   25303.46228682  .00027657  00000-0  18697-2 0  9993
2 46553  53.0552  11.2409 0001568  97.1845 262.9322 15.06374304280296
Epoch: 2025-10-30T11:05Z
TLE epoch observation values (Epoch: 2025-10-30T11:05:41.581Z)
Latitude
-0.00003°
Longitude
165.79689°
Altitude
548.303 km
Speed
7.589 km/s
True Right ascension
00h 44m 57s
True Declination
0° 00' 00"
Sunlit
Object was in full shadow at epoch
Visualization orbit readout
Latitude
Unknown
Longitude
Unknown
Altitude
Unknown
Speed
Unknown
Apparent Right ascension
Unknown
Apparent Declination
Unknown
Sunlit
N/A
Visualization observer readout
Local Sidereal Time
06:28:58
Azimuth
Unknown
Elevation
Unknown
Doppler factor
Unknown
Orbital elements
Apogee altitude
548.647 km
Perigee altitude
546.475 km
Semi-major axis
6,925.698 km
Eccentricity
0.00016
Inclination
53.0552°
RAAN
11.2409°
Arg. of periapsis
97.1845°
True anomaly
262.91437°
Mean anomaly
262.9322°
Eccentric anomaly
262.92328°
Mean motion
3.76572 °/min
Orbital period
95.6 mins
BSTAR
0.0018697
Loading maneuver chart data...
Computing Atmospheric mass density...
Loading historical data...
Loading historical data...
Loading historical data...
Loading historical data...
Loading historical data...
Loading historical data...
Loading historical data...

Documentation

Showing up to 5 results
|